TimeEST,TemperatureF,Dew PointF,Humidity,Sea Level PressureIn,VisibilityMPH,Wind Direction,Wind SpeedMPH,Gust SpeedMPH,PrecipitationIn,Events,Conditions,WindDirDegrees,DateUTC
12:53 AM,15.1,6.1,68,30.18,10.0,WSW,11.5,-,N/A,,Clear,250,2013-12-11 05:53:00
1:53 AM,15.1,6.1,68,30.19,10.0,SW,9.2,-,N/A,,Scattered Clouds,230,2013-12-11 06:53:00
2:53 AM,12.0,5.0,73,30.21,10.0,SW,9.2,-,N/A,,Clear,220,2013-12-11 07:53:00
3:53 AM,12.0,6.1,77,30.21,10.0,SW,8.1,-,N/A,,Clear,220,2013-12-11 08:53:00
4:53 AM,12.9,8.1,81,30.22,10.0,SW,9.2,-,N/A,,Partly Cloudy,230,2013-12-11 09:53:00
5:53 AM,15.1,9.0,77,30.23,10.0,WSW,6.9,-,N/A,,Mostly Cloudy,240,2013-12-11 10:53:00
6:53 AM,12.9,8.1,81,30.24,10.0,SW,8.1,-,N/A,,Partly Cloudy,230,2013-12-11 11:53:00
7:53 AM,12.9,9.0,84,30.26,10.0,SW,6.9,-,N/A,,Overcast,220,2013-12-11 12:53:00
8:53 AM,14.0,9.0,80,30.29,10.0,WSW,6.9,-,N/A,,Overcast,240,2013-12-11 13:53:00
9:07 AM,15.8,8.6,73,30.25,3.0,WSW,6.9,-,N/A,,Overcast,250,2013-12-11 14:07:00
9:17 AM,15.8,10.4,79,30.25,2.5,WSW,8.1,-,N/A,,Haze,250,2013-12-11 14:17:00
9:28 AM,15.8,10.4,79,30.26,10.0,West,9.2,-,N/A,,Overcast,260,2013-12-11 14:28:00
9:53 AM,16.0,8.1,71,30.31,10.0,West,10.4,-,N/A,,Mostly Cloudy,270,2013-12-11 14:53:00
10:53 AM,17.1,5.0,59,30.31,10.0,West,12.7,-,N/A,,Partly Cloudy,280,2013-12-11 15:53:00
11:53 AM,18.0,3.9,54,30.30,10.0,WNW,17.3,-,N/A,,Scattered Clouds,300,2013-12-11 16:53:00
12:53 PM,17.1,3.0,54,30.29,10.0,WNW,13.8,-,N/A,,Clear,290,2013-12-11 17:53:00
1:53 PM,17.1,-0.0,47,30.29,10.0,WNW,17.3,-,N/A,,Clear,290,2013-12-11 18:53:00
2:53 PM,17.1,1.9,52,30.30,10.0,West,13.8,-,N/A,,Partly Cloudy,280,2013-12-11 19:53:00
3:53 PM,15.1,-0.0,51,30.33,10.0,West,13.8,-,N/A,,Partly Cloudy,270,2013-12-11 20:53:00
4:53 PM,14.0,-0.9,52,30.35,10.0,WNW,9.2,-,N/A,,Scattered Clouds,290,2013-12-11 21:53:00
5:53 PM,12.9,-0.0,56,30.37,10.0,WNW,10.4,-,N/A,,Clear,290,2013-12-11 22:53:00
6:53 PM,10.0,-0.9,61,30.40,10.0,West,9.2,-,N/A,,Clear,280,2013-12-11 23:53:00
7:53 PM,10.0,-0.9,61,30.43,10.0,West,10.4,-,N/A,,Clear,280,2013-12-12 00:53:00
8:53 PM,8.1,-0.9,67,30.45,10.0,West,9.2,-,N/A,,Clear,270,2013-12-12 01:53:00
9:53 PM,5.0,-2.0,73,30.44,10.0,WSW,6.9,-,N/A,,Clear,250,2013-12-12 02:53:00
10:53 PM,3.0,-2.9,76,30.45,10.0,WSW,9.2,-,N/A,,Clear,250,2013-12-12 03:53:00
11:53 PM,3.9,-2.0,76,30.45,10.0,WSW,6.9,-,N/A,,Clear,250,2013-12-12 04:53:00